Tri-Cities, TN

9:30 PM EDT on April 26, 2018 (GMT -0400)
Tri-Cities Regional Tennessee / Virginia

Weather History for KTRI - October, 2014

Change the Weather History Date:

Wednesday, October 15, 2014

  Actual Average Record
Temperature  
Mean Temperature 58 °F 56 °F  
Max Temperature 67 °F 69 °F 83 °F (1971)
Min Temperature 48 °F 44 °F 25 °F (1939)
Degree Days  
Heating Degree Days 7 9  
Month to date heating degree days 67 103  
Since 1 July heating degree days 78 156  
Cooling Degree Days 0 0  
Month to date cooling degree days 9 9  
Year to date cooling degree days 1141 977  
Growing Degree Days 6 (Base 50)    
Moisture  
Dew Point 51 °F    
Average Humidity 76    
Maximum Humidity 100    
Minimum Humidity 52    
Precipitation  
Precipitation T in 0.06 in 1.17 in (1974)
Month to date precipitation 5.54 0.99  
Year to date precipitation 32.00 33.43  
Snow  
Snow 0.00 in 0.00 in - ()
Month to date snowfall 0.0 0.0  
Since 1 July snowfall 0.0 0.0  
Since 1 September snowfall 0.0 0.0  
Snow Depth 0.00 in    
Sea Level Pressure  
Sea Level Pressure 29.84 in    
Wind  
Wind Speed 6 mph (WSW)    
Max Wind Speed 20 mph    
Max Gust Speed 25 mph    
Visibility 6 miles    
Events Fog , Rain    
T = Trace of Precipitation, MM = Missing Value Source: NWS Daily Summary

Daily Weather History Graph

Daily Weather History Graph

Search for Another Location

Airport or City:

Astronomy

Oct. 15, 2014 Rise Set
Actual Time 7:36 AM EDT 6:53 PM EDT
Civil Twilight 7:10 AM EDT 7:19 PM EDT
Nautical Twilight 6:40 AM EDT 7:49 PM EDT
Astronomical Twilight 6:11 AM EDT 8:19 PM EDT
Moon 12:03 AM EDT (10/15) 2:14 PM EDT (10/15)
Length of Visible Light 12h 08m
Length of Day
11h 16m
Waning Gibbous, 51% of the Moon is Illuminated
Oct 15
Waning Gibbous
Oct 15
Last Quarter
Oct 23
New
Oct 30
First Quarter
Nov 6
Full

Hourly Weather History & Observations

Time (EDT) Temp. Dew Point Humidity Pressure Visibility Wind Dir Wind Speed Gust Speed Precip Events Conditions
12:53 AM 57.9 °F 55.0 °F 90% 29.83 in 10.0 mi WSW 5.8 mph - N/A   Mostly Cloudy
1:53 AM 55.0 °F 53.1 °F 93% 29.83 in 10.0 mi West 4.6 mph - N/A   Scattered Clouds
2:53 AM 54.0 °F 53.1 °F 97% 29.83 in 10.0 mi Calm Calm - N/A   Clear
3:02 AM 52.0 °F 52.0 °F 100% 29.88 in 1.8 mi Calm Calm - N/A   Clear
3:10 AM 53.1 °F 52.0 °F 96% 29.88 in 3.0 mi Calm Calm - N/A   Clear
3:53 AM 53.1 °F 52.0 °F 96% 29.81 in 10.0 mi Calm Calm - N/A   Scattered Clouds
4:14 AM 51.1 °F 51.1 °F 100% 29.87 in 1.5 mi Calm Calm - N/A   Clear
4:17 AM 51.1 °F 51.1 °F 100% 29.87 in 0.8 mi Calm Calm - N/A   Clear
4:24 AM 51.1 °F 50.0 °F 96% 29.87 in 0.5 mi Calm Calm - N/A Fog Fog
4:45 AM 51.1 °F 50.0 °F 96% 29.87 in 0.2 mi Calm Calm - N/A Fog Fog
4:53 AM 51.1 °F 50.0 °F 96% 29.81 in 0.2 mi Calm Calm - N/A Fog Fog
5:33 AM 50.0 °F 48.9 °F 96% 29.87 in 0.2 mi Calm Calm - N/A Fog Fog
5:37 AM 50.0 °F 48.9 °F 96% 29.87 in 0.5 mi Calm Calm - N/A Fog Fog
5:53 AM 48.9 °F 48.9 °F 100% 29.82 in 0.5 mi Calm Calm - N/A Fog Fog
6:40 AM 48.0 °F 48.0 °F 100% 29.88 in 0.1 mi Calm Calm - N/A Fog Fog
6:53 AM 48.9 °F 48.0 °F 97% 29.82 in 0.1 mi Calm Calm - N/A Fog Fog
7:53 AM 50.0 °F 50.0 °F 100% 29.83 in 0.1 mi Calm Calm - N/A Fog Fog
8:51 AM 53.6 °F 51.8 °F 94% 29.88 in 0.2 mi Calm Calm - N/A Fog Fog
8:53 AM 53.1 °F 53.1 °F 100% 29.83 in 0.5 mi Calm Calm - N/A Fog Fog
9:35 AM 54.0 °F 54.0 °F 100% 29.89 in 2.0 mi Calm Calm - N/A   Mostly Cloudy
9:53 AM 55.0 °F 54.0 °F 96% 29.84 in 10.0 mi WSW 3.5 mph - N/A   Mostly Cloudy
10:09 AM 57.0 °F 55.0 °F 93% 29.89 in 10.0 mi WSW 4.6 mph - N/A   Mostly Cloudy
10:53 AM 59.0 °F 53.1 °F 81% 29.83 in 10.0 mi West 8.1 mph - N/A   Mostly Cloudy
11:20 AM 60.1 °F 51.1 °F 72% 29.87 in 10.0 mi SW 9.2 mph - N/A   Mostly Cloudy
11:53 AM 62.1 °F 52.0 °F 70% 29.82 in 10.0 mi WSW 10.4 mph - N/A   Mostly Cloudy
1:53 PM 64.0 °F 48.0 °F 56% 29.78 in 10.0 mi SW 16.1 mph 23.0 mph N/A   Scattered Clouds
2:53 PM 64.0 °F 46.9 °F 54% 29.77 in 10.0 mi West 12.7 mph 20.7 mph N/A   Mostly Cloudy
3:53 PM 63.0 °F 45.0 °F 52% 29.78 in 10.0 mi WSW 16.1 mph - N/A   Mostly Cloudy
4:53 PM 62.1 °F 46.0 °F 56% 29.78 in 10.0 mi WSW 12.7 mph 20.7 mph 0.00 in   Mostly Cloudy
5:53 PM 57.9 °F 48.9 °F 72% 29.81 in 10.0 mi SW 10.4 mph - 0.00 in   Mostly Cloudy
6:53 PM 55.9 °F 48.9 °F 77% 29.82 in 10.0 mi SW 8.1 mph - 0.00 in Rain Light Rain
7:53 PM 54.0 °F 50.0 °F 86% 29.83 in 10.0 mi WSW 8.1 mph - 0.00 in Rain Light Rain
8:53 PM 54.0 °F 51.1 °F 90% 29.82 in 10.0 mi SW 4.6 mph - 0.00 in   Overcast
9:23 PM 54.0 °F 50.0 °F 86% 29.86 in 10.0 mi SW 8.1 mph - N/A   Overcast
9:53 PM 54.0 °F 50.0 °F 86% 29.83 in 10.0 mi SW 6.9 mph - N/A   Overcast
10:53 PM 53.1 °F 50.0 °F 89% 29.82 in 10.0 mi SSW 8.1 mph - 0.00 in Rain Light Rain
11:53 PM 53.1 °F 51.1 °F 93% 29.80 in 10.0 mi SW 6.9 mph - 0.00 in Rain Light Rain